| time (UTC) | temp C | wind direction | speed KPH | gust KPH | rain 1hr cm | rain 24hr cm | rain mn cm | humidity % | barometer mb |
| 20260504010059 | 7 | 239 | 1.6 | 4.8 | 0.00 | 1.04 | 0.51 | 52 | 1007.2 |
| 20260504004600 | 8 | 241 | 1.6 | 8.0 | 0.00 | 1.12 | 0.51 | 51 | 1006.8 |
| 20260504003048 | 8 | 263 | 3.2 | 11.3 | 0.00 | 1.12 | 0.51 | 49 | 1006.6 |
| 20260504001549 | 9 | 279 | 4.8 | 14.5 | 0.00 | 1.12 | 0.51 | 47 | 1006.5 |
| 20260504000046 | 9 | 266 | 4.8 | 17.7 | 0.00 | 1.12 | 0.51 | 47 | 1006.3 |
| 20260503234547 | 10 | 298 | 6.4 | 19.3 | 0.00 | 1.14 | 0.51 | 47 | 1006.0 |
| 20260503233046 | 10 | 253 | 4.8 | 17.7 | 0.00 | 1.14 | 0.51 | 47 | 1005.7 |
| 20260503231544 | 10 | 272 | 4.8 | 24.1 | 0.00 | 1.14 | 0.51 | 47 | 1005.3 |
| 20260503230044 | 10 | 279 | 4.8 | 11.3 | 0.00 | 1.14 | 0.51 | 47 | 1005.0 |
| 20260503224543 | 10 | 273 | 4.8 | 24.1 | 0.00 | 1.14 | 0.51 | 46 | 1004.7 |
| 20260503223048 | 11 | 265 | 4.8 | 16.1 | 0.00 | 1.14 | 0.51 | 47 | 1004.5 |
| 20260503221544 | 11 | 247 | 4.8 | 14.5 | 0.00 | 1.14 | 0.51 | 48 | 1004.1 |
| 20260503220041 | 11 | 329 | 4.8 | 24.1 | 0.00 | 1.14 | 0.51 | 48 | 1004.0 |
| 20260503214540 | 11 | 209 | 4.8 | 14.5 | 0.00 | 1.14 | 0.51 | 51 | 1003.8 |
| 20260503213057 | 11 | 225 | 8.0 | 20.9 | 0.00 | 1.14 | 0.51 | 49 | 1003.6 |
| 20260503211538 | 11 | 232 | 4.8 | 24.1 | 0.00 | 1.14 | 0.51 | 52 | 1003.5 |
| 20260503210047 | 11 | 263 | 3.2 | 19.3 | 0.00 | 1.14 | 0.51 | 52 | 1003.3 |
| 20260503204547 | 11 | 239 | 3.2 | 20.9 | 0.00 | 1.14 | 0.51 | 54 | 1003.1 |
| 20260503203034 | 11 | 316 | 4.8 | 20.9 | 0.00 | 1.14 | 0.51 | 56 | 1002.9 |
| 20260503201533 | 10 | 269 | 1.6 | 9.7 | 0.00 | 1.14 | 0.51 | 67 | 1002.9 |
| 20260503200034 | 10 | 351 | 3.2 | 12.9 | 0.00 | 1.14 | 0.51 | 72 | 1002.9 |
| 20260503194535 | 10 | 292 | 6.4 | 14.5 | 0.00 | 1.14 | 0.51 | 68 | 1003.0 |
| 20260503193039 | 10 | 318 | 9.7 | 17.7 | 0.00 | 1.14 | 0.51 | 65 | 1002.9 |
| 20260503191530 | 10 | 300 | 8.0 | 19.3 | 0.00 | 1.14 | 0.51 | 62 | 1002.8 |
| 20260503190034 | 8 | 319 | 6.4 | 14.5 | 0.00 | 1.14 | 0.51 | 67 | 1002.9 |
| 20260503184535 | 8 | 234 | 6.4 | 19.3 | 0.03 | 1.14 | 0.51 | 72 | 1003.1 |
| 20260503183024 | 8 | 284 | 3.2 | 17.7 | 0.03 | 1.14 | 0.51 | 78 | 1003.1 |
| 20260503181523 | 7 | 290 | 3.2 | 14.5 | 0.03 | 1.14 | 0.51 | 86 | 1003.0 |
| 20260503180025 | 6 | 311 | 6.4 | 17.7 | 0.03 | 1.14 | 0.51 | 88 | 1003.0 |
| 20260503174521 | 7 | 325 | 8.0 | 22.5 | 0.00 | 1.12 | 0.48 | 85 | 1002.9 |
| 20260503173021 | 7 | 306 | 9.7 | 19.3 | 0.00 | 1.12 | 0.48 | 83 | 1002.8 |
| 20260503171520 | 8 | 325 | 9.7 | 27.4 | 0.00 | 1.12 | 0.48 | 75 | 1002.7 |
| 20260503170120 | 8 | 331 | 9.7 | 22.5 | 0.00 | 1.12 | 0.48 | 74 | 1002.4 |
| 20260503120103 | 6 | 282 | 3.2 | 12.9 | 0.00 | 1.12 | 0.48 | 93 | 1002.8 |
| 20260503081520 | 7 | 250 | 4.8 | 14.5 | 0.03 | 0.99 | 0.36 | 96 | 1004.0 |
| 20260503071513 | 7 | 286 | 3.2 | 12.9 | 0.08 | 0.97 | 0.33 | 97 | 1004.4 |
| 20260503054559 | 8 | 269 | 0.0 | 6.4 | 0.13 | 0.84 | 0.20 | 97 | 1005.5 |
| 20260503053054 | 8 | 281 | 0.0 | 6.4 | 0.10 | 0.79 | 0.15 | 97 | 1005.7 |
| 20260503051553 | 8 | 219 | 0.0 | 0.0 | 0.08 | 0.71 | 0.10 | 97 | 1006.0 |
| 20260503050049 | 8 | 218 | 0.0 | 0.0 | 0.10 | 0.71 | 0.10 | 96 | 1006.0 |
| 20260503044546 | 8 | 218 | 0.0 | 0.0 | 0.13 | 0.71 | 0.08 | 96 | 1006.4 |
| 20260503043047 | 8 | 218 | 0.0 | 0.0 | 0.15 | 0.69 | 0.05 | 96 | 1006.5 |
| 20260503041546 | 8 | 218 | 0.0 | 0.0 | 0.18 | 0.66 | 0.03 | 96 | 1006.9 |
| 20260503040047 | 8 | 218 | 0.0 | 0.0 | 0.20 | 0.64 | 0.00 | 96 | 1006.9 |
| 20260503034558 | 8 | 218 | 0.0 | 0.0 | 0.18 | 0.58 | 0.58 | 96 | 1006.9 |
| 20260503033044 | 8 | 218 | 0.0 | 0.0 | 0.15 | 0.53 | 0.53 | 96 | 1006.8 |
| 20260503031542 | 8 | 218 | 0.0 | 0.0 | 0.13 | 0.48 | 0.48 | 96 | 1006.9 |
| 20260503030050 | 8 | 218 | 0.0 | 0.0 | 0.13 | 0.43 | 0.43 | 96 | 1006.9 |
| 20260503024535 | 8 | 218 | 0.0 | 3.2 | 0.15 | 0.41 | 0.41 | 96 | 1007.3 |
| 20260503023034 | 8 | 218 | 0.0 | 1.6 | 0.20 | 0.38 | 0.38 | 96 | 1007.6 |
| 20260503021541 | 8 | 218 | 0.0 | 1.6 | 0.23 | 0.36 | 0.36 | 95 | 1007.8 |
| 20260503020032 | 8 | 218 | 0.0 | 0.0 | 0.20 | 0.30 | 0.30 | 95 | 1007.8 |
| 20260503014531 | 8 | 218 | 0.0 | 1.6 | 0.20 | 0.25 | 0.25 | 95 | 1007.9 |
| 20260503013031 | 8 | 218 | 0.0 | 0.0 | 0.13 | 0.18 | 0.18 | 95 | 1008.1 |
| 20260503011534 | 8 | 218 | 0.0 | 1.6 | 0.10 | 0.13 | 0.13 | 94 | 1008.1 |